Location: Basses Si�yes
(44.0835°N, 6.2037°E)
Time: 11:21:39
(UTC+00:00)

Cosmos 2297 Rocket - Pass Details

Date: 27 February 2020
Orbit: 838 x 844 km, 71.0° (Epoch: 08 April)

Event Time Altitude Azimuth Distance (km) Brightness Sun altitude
Rises 17:54:48 0° 345° (NNW) 3,414 5.5 -7.0°
Reaches altitude 10° 17:58:33 10° 10° (N) 2,475 4.5 -7.7°
Maximum altitude 18:01:32 14° 42° (NE) 2,178 3.9 -8.2°
Drops below altitude 10° 18:04:30 10° 74° (ENE) 2,469 4.0 -8.8°
Enters shadow 18:04:31 10° 74° (ENE) 2,472 4.0 -8.8°
